Location: Lancaster
(34.6980°N, 118.1360°W)
Time: 20:03:04
(UTC-08:00)

Hubble Space Telescope - Pass Details

Date: 17 November 2017
Orbit: 537 x 541 km, 28.5° (Epoch: 24 November)

Event Time Altitude Azimuth Distance (km) Brightness Sun altitude
Exits shadow 04:48:53 14° 202° (SSW) 1,518 2.9 -20.5°
Maximum altitude 04:51:01 21° 164° (SSE) 1,242 2.9 -20.1°
Drops below altitude 10° 04:54:07 10° 115° (ESE) 1,781 4.5 -19.4°
Sets 04:56:47 0° 99° (E) 2,674 6.0 -18.9°
